Latest Coastal Weather Observations for Cocos Island

IDW60701

Issued at 8:03 pm WST Sunday 24 September 2017 (issued every 10 minutes, with the page automatically refreshed every 10 minutes)

About coastal observations | Map of coastal stations | Coastal observations for WA | Marine services | Other Formats
Station Details ID: 200284 Name: COCOS ISLAND AIRPORT Lat: -12.19 Lon: 96.83 Height: 3.0 m
Data from the previous 72 hours. | See also: Recent months at Cocos Island
Date/Time
WST
Temp
°C
Wind Pressure Rain since
9am
mm
Weather Cloud Vis
km
Sea
Height
m
Swell
Dir  Spd
kts
Gust
kts
hPa Trend Height
m
Period
s
Dir
24/08:00pm 25.3 SSE 16 22 1014.4 - 0.0 - Cloudy 10 - - - -
24/07:33pm 25.4 SSE 15 22 1014.4 - 0.0 - Partly cloudy 10 - - - -
24/07:30pm 25.4 SSE 16 23 1014.3 - 0.0 - Partly cloudy 10 - - - -
24/07:15pm 25.5 SSE 16 22 1014.1 - 0.0 - Partly cloudy 5 - - - -
24/07:00pm 25.4 SSE 15 22 1014.0 - 0.0 - Partly cloudy 10 - - - -
24/06:30pm 25.6 SSE 17 23 1013.8 - 0.0 - Partly cloudy 10 - - - -
24/06:00pm 25.8 SE 19 24 1013.7 - 0.0 - Cloudy 10 - - - -
24/05:30pm 25.9 SE 17 21 1013.5 - 0.0 - Partly cloudy 10 - - - -
24/05:00pm 26.2 SE 16 22 1013.6 - 0.0 - Cloudy 10 - - - -
24/04:30pm 26.0 SE 16 22 1013.7 - 0.0 - Partly cloudy 10 - - - -
24/04:00pm 27.0 SSE 16 21 1013.8 - 0.0 - Partly cloudy 10 - - - -
24/03:30pm 26.6 SSE 16 21 1014.1 - 0.0 - Partly cloudy 10 - - - -
24/03:00pm 26.7 SSE 16 22 1014.2 - 0.0 - Partly cloudy 10 - - - -
24/02:30pm 27.1 SE 17 22 1014.6 - 0.0 - Cloudy 10 - - - -
24/02:00pm 27.3 SE 17 22 1014.8 - 0.0 - Mostly cloudy 10 - - - -
24/01:30pm 27.2 SE 16 21 1015.2 - 0.0 - Cloudy 10 - - - -
24/01:00pm 27.1 SSE 17 23 1015.4 - 0.0 - Cloudy 10 - - - -
24/12:30pm 27.1 SE 17 22 1015.8 - 0.0 - Partly cloudy 10 - - - -
24/12:00pm 26.5 SE 17 22 1016.0 - 0.0 - Partly cloudy 10 - - - -
24/11:32am 26.6 SE 17 24 1016.3 - 0.0 - - - - - - -
24/11:30am 26.5 SE 17 24 1016.4 - 0.0 - - - - - - -
24/11:19am 26.3 SSE 17 23 1016.4 - 0.0 - Partly cloudy 5 - - - -
24/11:00am 26.5 SSE 17 23 1016.3 - 0.0 - Cloudy 10 - - - -
24/10:30am 26.7 SE 17 21 1016.2 - 0.0 - Partly cloudy 10 - - - -
24/10:00am 25.9 SSE 17 23 1016.1 - 0.0 - Partly cloudy 10 - - - -
24/09:30am 25.7 SE 18 23 1015.8 - 0.0 - Partly cloudy 10 - - - -
24/09:00am 25.1 SE 16 22 1015.6 - 0.0 - Partly cloudy 10 - - - -
24/08:30am 24.8 SE 17 24 1015.5 - 0.0 - Partly cloudy 10 - - - -
24/08:00am 24.7 SE 17 22 1015.1 - 0.0 - Cloudy 10 - - - -
24/07:30am 24.7 SE 17 23 1014.8 - 0.0 - Partly cloudy 10 - - - -
24/07:00am 24.7 SSE 16 21 1014.7 - 0.0 - Partly cloudy 10 - - - -
24/06:30am 24.6 SSE 17 23 1014.5 - 0.0 - Partly cloudy 10 - - - -
24/06:00am 24.5 SSE 15 20 1014.2 - 0.0 - Partly cloudy 10 - - - -
24/05:30am 24.6 SSE 17 23 1014.0 - 0.0 - Partly cloudy 10 - - - -
24/05:00am 24.5 SE 17 23 1014.0 - 0.0 - Cloudy 10 - - - -
24/04:30am 24.5 SE 17 23 1014.3 - 0.0 - Partly cloudy 10 - - - -
24/04:00am 24.5 SE 16 22 1014.5 - 0.0 - Partly cloudy 10 - - - -
24/03:30am 24.7 SE 17 23 1014.9 - 0.0 - Partly cloudy 10 - - - -
24/03:13am 24.7 SE 18 23 1015.0 - 0.0 - Partly cloudy 10 - - - -
24/03:00am 24.6 SE 17 24 1015.0 - 0.0 - Partly cloudy 4 - - - -
24/02:54am 24.7 SE 18 24 1015.0 - 0.0 - Partly cloudy 4 - - - -
24/02:30am 24.9 SE 17 23 1015.4 - 0.0 - Partly cloudy 10 - - - -
24/02:00am 24.8 SE 17 23 1015.8 - 0.0 - Cloudy 10 - - - -
24/01:30am 24.9 SE 18 23 1016.2 - 0.0 - Partly cloudy 10 - - - -
24/01:00am 25.0 SE 21 27 1016.6 - 0.0 - Partly cloudy 10 - - - -
24/12:34am 24.9 SE 18 28 1016.6 - 0.0 - Partly cloudy 10 - - - -
24/12:30am 25.1 SE 18 25 1016.6 - 0.0 - Partly cloudy 10 - - - -
24/12:00am 25.4 SE 20 29 1016.9 - 0.0 - Cloudy 10 - - - -
 
Date/Time
WST
Temp
°C
Wind Pressure Rain since
9am
mm
Weather Cloud Vis
km
Sea
Height
m
Swell
Dir  Spd
kts
Gust
kts
hPa Trend Height
m
Period
s
Dir
23/11:30pm 25.5 SE 19 26 1016.9 - 0.0 - Partly cloudy 10 - - - -
23/11:00pm 25.6 SE 21 29 1016.7 - 0.0 - Cloudy 10 - - - -
23/10:52pm 25.4 SE 19 29 1016.8 - 0.0 - Partly cloudy 10 - - - -
23/10:30pm 25.5 SE 19 23 1016.7 - 0.0 - Partly cloudy 10 - - - -
23/10:00pm 25.4 SE 19 27 1016.4 - 0.0 - Partly cloudy 10 - - - -
23/09:30pm 25.5 SE 20 27 1016.2 - 0.0 - Partly cloudy 10 - - - -
23/09:00pm 25.6 SE 17 26 1015.9 - 0.0 - Partly cloudy 10 - - - -
23/08:30pm 25.7 SE 18 24 1015.6 - 0.0 - Partly cloudy 10 - - - -
23/08:00pm 25.6 SE 17 24 1015.3 - 0.0 - Partly cloudy 10 - - - -
23/07:30pm 25.9 SE 19 25 1015.3 - 0.0 - Partly cloudy 10 - - - -
23/07:00pm 25.9 SSE 19 24 1015.2 - 0.0 - Partly cloudy 10 - - - -
23/06:56pm 26.0 SSE 18 24 1015.2 - 0.0 - Partly cloudy 10 - - - -
23/06:33pm 26.1 SE 18 25 1015.1 - 0.0 - Partly cloudy 5 - - - -
23/06:30pm 26.2 SE 19 25 1015.1 - 0.0 - Partly cloudy 10 - - - -
23/06:00pm 26.6 SE 17 24 1015.0 - 0.0 - Partly cloudy 10 - - - -
23/05:30pm 26.7 SE 17 24 1015.0 - 0.0 - Partly cloudy 10 - - - -
23/05:00pm 27.4 SE 18 23 1014.9 - 0.0 - Mostly clear 10 - - - -
23/04:30pm 27.7 SE 17 24 1015.0 - 0.0 - Partly cloudy 10 - - - -
23/04:00pm 27.5 SE 18 23 1015.0 - 0.0 - Partly cloudy 10 - - - -
23/03:30pm 27.0 SE 18 23 1015.2 - 0.0 - Partly cloudy 10 - - - -
23/03:00pm 27.8 SE 18 24 1015.4 - 0.0 - Partly cloudy 10 - - - -
23/02:30pm 28.2 SE 18 24 1015.6 - 0.0 - Partly cloudy 10 - - - -
23/02:00pm 28.0 SE 19 25 1015.8 - 0.0 - Mostly clear 10 - - - -
23/01:30pm 28.2 SE 18 24 1016.3 - 0.0 - Partly cloudy 10 - - - -
23/01:00pm 28.1 SE 18 23 1016.5 - 0.0 - Partly cloudy 10 - - - -
23/12:30pm 27.8 SE 17 23 1016.7 - 0.0 - Partly cloudy 10 - - - -
23/12:00pm 26.7 SE 18 22 1017.0 - 0.0 - Partly cloudy 10 - - - -
23/11:30am 27.3 SE 17 21 1017.2 - 0.0 - - 10 - - - -
23/11:00am 26.7 SE 18 25 1017.2 - 0.0 - Mostly clear 10 - - - -
23/10:49am 26.5 SE 19 24 1017.3 - 0.0 - Partly cloudy 10 - - - -
23/10:30am 26.5 SE 18 23 1017.2 - 0.0 - - 6 - - - -
23/10:00am 26.1 SE 19 23 1016.9 - 0.0 - Partly cloudy 10 - - - -
23/09:30am 26.0 SE 19 24 1016.7 - 0.0 - Partly cloudy 10 - - - -
23/09:00am 25.4 SE 17 22 1016.3 - 0.0 - Partly cloudy 10 - - - -
23/08:30am 25.5 SE 17 23 1016.2 - 0.0 - Partly cloudy 10 - - - -
23/08:00am 25.3 SE 17 22 1015.8 - 0.0 - Cloudy 10 - - - -
23/07:30am 25.2 SE 18 24 1015.5 - 0.0 - Partly cloudy 10 - - - -
23/07:00am 25.1 SE 16 21 1015.4 - 0.0 - Partly cloudy 10 - - - -
23/06:30am 25.1 SE 18 23 1015.3 - 0.0 - Partly cloudy 10 - - - -
23/06:00am 25.2 SE 18 22 1015.1 - 0.0 - Partly cloudy 10 - - - -
23/05:30am 25.0 SE 18 22 1015.1 - 0.0 - Partly cloudy 10 - - - -
23/05:00am 25.0 SE 18 23 1014.9 - 0.0 - Cloudy 10 - - - -
23/04:30am 24.7 SE 14 20 1015.2 - 0.0 - Partly cloudy 10 - - - -
23/04:00am 25.1 SE 17 21 1015.2 - 0.0 - Partly cloudy 10 - - - -
23/03:45am 25.0 SE 15 25 1015.3 - 0.0 - Partly cloudy 10 - - - -
23/03:30am 24.7 SE 18 22 1015.4 - 0.0 - Partly cloudy 10 - - - -
23/03:00am 25.1 SE 19 23 1015.2 - 0.0 - Partly cloudy 10 - - - -
23/02:30am 25.3 SE 18 24 1015.3 - 0.0 - Partly cloudy 10 - - - -
23/02:21am 25.4 SE 20 26 1015.4 - 0.0 - Partly cloudy 10 - - - -
23/02:02am 25.3 SE 20 25 1015.6 - 0.0 - Partly cloudy 5 - - - -
23/02:00am 25.4 SE 20 25 1015.5 - 0.0 - Cloudy 10 - - - -
23/01:30am 25.3 SE 19 25 1015.9 - 0.0 - Partly cloudy 10 - - - -
23/01:00am 25.3 SE 20 25 1015.9 - 0.0 - Partly cloudy 10 - - - -
23/12:30am 25.4 SE 16 20 1015.9 - 0.0 - - 10 - - - -
23/12:00am 25.7 SE 17 24 1015.9 - 0.0 - Partly cloudy 10 - - - -
 
Date/Time
WST
Temp
°C
Wind Pressure Rain since
9am
mm
Weather Cloud Vis
km
Sea
Height
m
Swell
Dir  Spd
kts
Gust
kts
hPa Trend Height
m
Period
s
Dir
22/11:30pm 25.8 SE 19 23 1015.8 - 0.0 - Partly cloudy 10 - - - -
22/11:00pm 25.8 SE 19 25 1015.5 - 0.0 - Partly cloudy 10 - - - -
22/10:30pm 25.9 SE 19 25 1015.5 - 0.0 - Partly cloudy 10 - - - -
22/10:00pm 26.0 SE 19 24 1015.3 - 0.0 - Partly cloudy 10 - - - -
22/09:30pm 26.1 SE 19 23 1015.0 - 0.0 - Partly cloudy 10 - - - -
22/09:00pm 26.1 SE 19 25 1014.6 - 0.0 - Partly cloudy 10 - - - -
22/08:30pm 26.0 SE 18 23 1014.2 - 0.0 - Partly cloudy 10 - - - -
22/08:00pm 26.2 SE 18 23 1013.6 - 0.0 - Partly cloudy 10 - - - -
22/07:30pm 26.3 SE 16 22 1013.6 - 0.0 - Partly cloudy 10 - - - -
22/07:00pm 26.5 SE 17 20 1013.5 - 0.0 - Partly cloudy 10 - - - -
22/06:30pm 26.6 SE 16 20 1013.3 - 0.0 - Partly cloudy 10 - - - -
22/06:04pm 26.8 SE 17 21 1013.1 - 0.0 - Partly cloudy 10 - - - -
22/06:00pm 26.8 SE 16 21 1013.1 - 0.0 - Partly cloudy 10 - - - -
22/05:45pm 27.1 SE 16 21 1013.1 - 0.0 - Partly cloudy 5 - - - -
22/05:30pm 27.2 SE 16 20 1013.0 - 0.0 - Partly cloudy 10 - - - -
22/05:00pm 27.5 SE 16 20 1012.8 - 0.0 - Mostly cloudy 10 - - - -
22/04:30pm 27.1 SE 16 19 1012.8 - 0.0 - Partly cloudy 10 - - - -
22/04:00pm 27.9 SE 16 21 1012.9 - 0.0 - Partly cloudy 10 - - - -
22/03:30pm 27.8 SE 16 21 1013.1 - 0.0 - Partly cloudy 10 - - - -
22/03:00pm 28.6 SE 16 19 1013.4 - 0.0 - Partly cloudy 10 - - - -
22/02:30pm 28.0 SE 17 20 1013.9 - 0.0 - - 10 - - - -
22/02:00pm 27.9 ESE 15 19 1014.3 - 0.0 - Mostly clear 10 - - - -
22/01:30pm 27.8 SE 15 21 1014.7 - 0.0 - - 10 - - - -
22/01:00pm 27.8 ESE 15 18 1014.9 - 0.0 - - 10 - - - -
22/12:30pm 28.0 ESE 15 19 1015.1 - 0.0 - - 10 - - - -
22/12:00pm 27.6 ESE 13 18 1015.4 - 0.0 - - 10 - - - -
22/11:30am 28.4 ESE 13 18 1015.7 - 0.0 - - 10 - - - -
22/11:00am 27.3 ESE 14 18 1015.5 - 0.0 - Mostly clear 10 - - - -
22/10:30am 26.9 ESE 12 19 1015.6 - 0.0 - Partly cloudy 10 - - - -
22/10:00am 26.7 ESE 12 17 1015.3 - 0.0 - Partly cloudy 10 - - - -
22/09:51am 26.6 ESE 15 21 1015.3 - 0.0 - Partly cloudy 10 - - - -
22/09:32am 26.5 ESE 11 16 1015.2 - 0.0 - Partly cloudy 5 - - - -
22/09:30am 26.5 ESE 11 17 1015.2 - 0.0 - Partly cloudy 10 - - - -
22/09:00am 26.1 ESE 13 19 1014.7 - 0.0 - - 10 - - - -
22/08:30am 25.8 ESE 11 18 1014.8 - 0.0 - Partly cloudy 10 - - - -
22/08:00am 25.5 ESE 12 17 1014.4 - 0.0 - Mostly cloudy 10 - - - -
22/07:30am 25.2 ESE 13 18 1014.2 - 0.0 - Partly cloudy 10 - - - -
22/07:00am 25.2 ESE 9 13 1014.0 - 0.0 - Partly cloudy 10 - - - -
22/06:30am 25.1 ESE 12 17 1013.8 - 0.0 - Partly cloudy 10 - - - -
22/06:00am 25.2 ESE 11 17 1013.7 - 0.0 - Partly cloudy 10 - - - -
22/05:30am 25.1 ESE 10 17 1013.6 - 0.0 - Partly cloudy 10 - - - -
22/05:00am 24.9 ESE 10 15 1013.2 - 0.0 - Partly cloudy 10 - - - -
22/04:30am 25.1 ESE 15 21 1013.6 - 0.0 - Partly cloudy 10 - - - -
22/04:00am 25.0 ESE 11 15 1013.6 - 0.0 - Partly cloudy 10 - - - -
22/03:30am 25.0 ESE 13 18 1013.6 - 0.0 - Partly cloudy 10 - - - -
22/03:00am 25.0 ESE 15 20 1013.7 - 0.0 - Partly cloudy 10 - - - -
22/02:30am 25.1 SE 17 21 1014.0 - 0.0 - Partly cloudy 10 - - - -
22/02:00am 25.2 ESE 12 19 1014.2 - 0.0 - Partly cloudy 10 - - - -
22/01:30am 25.3 ESE 15 19 1014.5 - 0.0 - Partly cloudy 10 - - - -
22/01:27am 25.3 SE 16 21 1014.5 - 0.0 - Partly cloudy 10 - - - -
22/01:11am 25.4 SE 17 21 1014.6 - 0.0 - Partly cloudy 5 - - - -
22/01:00am 25.4 SE 17 23 1014.7 - 0.0 - Partly cloudy 10 - - - -
22/12:30am 25.6 SE 16 21 1014.8 - 0.0 - Partly cloudy 10 - - - -
22/12:00am 25.6 SE 16 21 1014.8 - 0.0 - Partly cloudy 10 - - - -
 
Date/Time
WST
Temp
°C
Wind Pressure Rain since
9am
mm
Weather Cloud Vis
km
Sea
Height
m
Swell
Dir  Spd
kts
Gust
kts
hPa Trend Height
m
Period
s
Dir
21/11:30pm 25.7 SE 17 21 1014.5 - 0.0 - Partly cloudy 10 - - - -
21/11:00pm 25.7 SE 17 21 1014.5 - 0.0 - Partly cloudy 10 - - - -
21/10:30pm 25.8 SE 16 21 1014.5 - 0.0 - Partly cloudy 10 - - - -
21/10:00pm 25.8 SE 15 20 1014.2 - 0.0 - Partly cloudy 10 - - - -

Other Formats:

Comma delimited format used in spreadsheet applications
http://www.bom.gov.au/fwo/IDW60701/IDW60701.96996.axf

JavaScript Object Notation format (JSON) in row-major order
http://www.bom.gov.au/fwo/IDW60701/IDW60701.96996.json